Frying Pan Shoals, NC (41013)

Conditions for Die Mercurii

Daily
Weekly
Monthly
Marine Data Graph

Current Weather/Wave Observations

Air Temperature: 78° F
Humidity: 77
Wind direction (W Dir): Inter Austrum et Zephyrum (225 - 234 Degrees)
Wind Speed (W Spd): 23.3 kts (26.8 mph)
Wind Gust (W Spd): 29.2 kts (33.6 mph)
Atmospheric Pressure (AP): 29.69 in

Updated: 07:20 AM EDT die 24o May, anno 2017

Marine & Boating Location Search

Enter a coastal zip code for marine weather.

General Information

Location: 33.436 North -77.743 West
Buoy Type: 2.3-meter foam discus buoy
Buoy Hull: 2.3D01
Payload: SCOOP payload
Owned by: NDBC
Windspeed: Measured by obtained from anemometer
Sea Surface: Measured by Intake
Note: Right whales are active off NC from November to April. Speed restrictions of 10 knots apply to vessels 65 feet or greater in specific areas and times along the mid-Atlantic coast. To learn more about right whales and rules protecting them, go to: http://www.nmfs.noaa.gov/pr/shipstrike/

Weather and Wave Data

Time Temp Humidity Wind Dominant Wave Wind Wave Wave Swell Pressure
  Air
(°F)
Water
(°F)
  Dir Speed
(kts)
Speed
(mph)
Period
(sec)
Height
(ft)
Range
(ft)
Period
(sec)
Height
(ft)
Range
(ft)
Period
(sec)
Height
(ft)
Range
(ft)
Atmo.
(in)
Tend.
(in)
20:10 72 78 97 Magis Zephyrus quam Auster 15.6 17.9 - - - - - - 29.75 -
20:20 72 77 92 Magis Zephyrus quam Auster 11.7 13.4 - - - - - - 29.74 -
20:30 73 77 90 Zephyrus 9.7 11.2 - - - - - - 29.74 -
20:40 73 78 92 Zephyrus 15.6 17.9 - - - - - - 29.75 -
20:50 72 78 97 Magis Zephyrus quam Aquilo 15.6 17.9 7 5.91 exactly 5.9 7 4.92 4.10 - 5.74 10 3.28 2.46 - 4.10 29.74 -
21:10 72 78 94 Zephyrus 15.6 17.9 - - - - - - 29.73 -
21:20 71 78 96 Magis Zephyrus quam Aquilo 11.7 13.4 - - - - - - 29.73 -
21:30 72 78 94 Magis Zephyrus quam Aquilo 9.7 11.2 - - - - - - 29.73 -
21:40 71 78 98 Inter Aquilonem et Zephyrus 9.7 11.2 - - - - - - 29.73 -
21:50 71 77 93 Inter Aquilonem et Zephyrus 9.7 11.2 8 5.58 exactly 5.6 4 1.64 0.82 - 2.46 8 4.92 4.10 - 5.74 29.73 -
22:10 71 77 97 Inter Aquilonem et Zephyrus 13.6 15.7 - - - - - - 29.73 -
22:20 71 77 99 Magis Zephyrus quam Aquilo 13.6 15.7 - - - - - - 29.73 -
22:30 71 77 96 Magis Zephyrus quam Aquilo 15.6 17.9 - - - - - - 29.71 -
22:40 71 77 95 Zephyrus 19.4 22.4 - - - - - - 29.75 -
22:50 70 77 98 Magis Zephyrus quam Auster 23.3 26.8 7 5.58 exactly 5.6 7 4.92 4.10 - 5.74 - - - 29.74 -
23:00 71
-
93 Magis Zephyrus quam Auster 19.4 22.4 - - - - - - 29.72 -
23:10 71 77 96 Magis Zephyrus quam Auster 17.5 20.1 - - - - - - 29.73 -
23:20 72 77 91 Inter Austrum et Zephyrum 15.6 17.9 - - - - - - 29.72 -
23:30 72 77 92 Magis Auster quam Zephyrus 17.5 20.1 - - - - - - 29.71 -
23:40 73 77 91 Magis Auster quam Zephyrus 19.4 22.4 - - - - - - 29.72 -
23:50 73 77 91 Magis Auster quam Zephyrus 17.5 20.1 7 5.91 exactly 5.9 7 6.56 5.74 - 7.38 - - - 29.72 -
00:10 75 77 87 Magis Auster quam Zephyrus 17.5 20.1 - - - - - - 29.71 -
00:20 75 77 88 Magis Auster quam Zephyrus 19.4 22.4 - - - - - - 29.71 -
00:30 76 77 85 Inter Austrum et Zephyrum 17.5 20.1 - - - - - - 29.71 -
00:40 77 77 81 Inter Austrum et Zephyrum 17.5 20.1 - - - - - - 29.71 -
01:10 77 77 85 Inter Austrum et Zephyrum 15.6 17.9 - - - - - - 29.69 -
01:20 77 77 86 Inter Austrum et Zephyrum 13.6 15.7 - - - - - - 29.69 -
01:30 77 77 86 Inter Austrum et Zephyrum 13.6 15.7 - - - - - - 29.69 -
01:40 77 77 86 Inter Austrum et Zephyrum 15.6 17.9 - - - - - - 29.68 -
01:50 77 77 87 Inter Austrum et Zephyrum 15.6 17.9 7 6.89 exactly 6.9 7 6.56 5.74 - 7.38 14 1.64 0.82 - 2.46 29.68 -
02:10 78 77 83 Inter Austrum et Zephyrum 17.5 20.1 - - - - - - 29.68 -
02:20 78 77 82 Magis Zephyrus quam Auster 19.4 22.4 - - - - - - 29.67 -
02:30 77 77 79 Magis Zephyrus quam Auster 23.3 26.8 - - - - - - 29.66 -
02:40 77 77 77 Magis Zephyrus quam Auster 23.3 26.8 - - - - - - 29.67 -
03:00 77 77 74 Magis Zephyrus quam Auster 25.3 29.1 - - - - - - 29.67 -0.04
03:10 77 77 75 Magis Zephyrus quam Auster 23.3 26.8 - - - - - - 29.68 -
03:20 77 77 76 Magis Zephyrus quam Auster 21.4 24.6 - - - - - - 29.68 -
03:30 78 77 74 Magis Zephyrus quam Auster 21.4 24.6 - - - - - - 29.68 -
03:40 78 77 76 Magis Zephyrus quam Auster 21.4 24.6 - - - - - - 29.68 -
03:50 78 77 76 Magis Zephyrus quam Auster 21.4 24.6 8 7.87 exactly 7.9 8 8.20 7.38 - 9.02 12 1.64 0.82 - 2.46 29.68 -
04:00 78 77 76 Magis Zephyrus quam Auster 21.4 24.6 - - - - - - 29.68 -0.02
04:10 78 77 78 Magis Zephyrus quam Auster 21.4 24.6 - - - - - - 29.68 -
04:20 78 77 80 Magis Zephyrus quam Auster 21.4 24.6 - - - - - - 29.68 -
04:30 78 77 79 Magis Zephyrus quam Auster 21.4 24.6 - - - - - - 29.67 -
04:40 78 77 78 Magis Zephyrus quam Auster 21.4 24.6 - - - - - - 29.67 -
04:50 78 77 78 Magis Zephyrus quam Auster 21.4 24.6 8 8.20 exactly 8.2 8 8.20 7.38 - 9.02 12 1.64 0.82 - 2.46 29.68 -
05:20 78 77 78 Inter Austrum et Zephyrum 21.4 24.6 - - - - - - 29.68 -
05:30 78 77 78 Inter Austrum et Zephyrum 21.4 24.6 - - - - - - 29.68 -
05:40 78 77 78 Inter Austrum et Zephyrum 19.4 22.4 - - - - - - 29.68 -
05:50 78 77 78 Inter Austrum et Zephyrum 21.4 24.6 8 8.20 exactly 8.2 6 6.56 5.74 - 7.38 8 4.92 4.10 - 5.74 29.68 -
06:20 78 77 78 Inter Austrum et Zephyrum 21.4 24.6 - - - - - - 29.68 -
06:30 78 77 77 Inter Austrum et Zephyrum 25.3 29.1 - - - - - - 29.68 -
06:40 77 77 81 Inter Austrum et Zephyrum 23.3 26.8 - - - - - - 29.68 -
06:50 78 77 78 Magis Zephyrus quam Auster 23.3 26.8 8 8.53 exactly 8.5 5 6.56 5.74 - 7.38 8 4.92 4.10 - 5.74 29.68 -
07:00 78 77 77 Inter Austrum et Zephyrum 23.3 26.8 - - - - - - 29.68 +0.01
07:10 78 77 76 Inter Austrum et Zephyrum 23.3 26.8 - - - - - - 29.69 -
07:20 78 77 77 Inter Austrum et Zephyrum 23.3 26.8 - - - - - - 29.69 -

Detailed Wave Spectra

Time Water Depth Wave Height Spectral Peak Period Average Wave Period Sampling Interval Wave Record
20:00 79 ft 6.27 ft 7.1 sec 5.1 sec 0.6 sec 2400 sec
21:00 79 ft 6.07 ft 6.7 sec 5.4 sec 0.6 sec 2400 sec
22:00 79 ft 5.58 ft 7.7 sec 5.4 sec 0.6 sec 2400 sec
01:00 79 ft 6.30 ft 6.7 sec 5.1 sec 0.6 sec 2400 sec
02:00 79 ft 7.02 ft 7.1 sec 5.6 sec 0.6 sec 2400 sec
05:00 79 ft 8.04 ft 8.3 sec 5.7 sec 0.6 sec 2400 sec
06:00 79 ft 8.30 ft 8.3 sec 5.6 sec 0.6 sec 2400 sec